EW5627 Weather Reports


Display with metric or nautical units.
time (UTC)temp
F
wind
direction
speed
MPH
gust
MPH
rain 1hr
in
rain 24hr
in
rain mn
in
humidity
%
barometer
mb
20260506043046 62 212 0.0 0.0 0.00 0.00 0.00 71 1009.4
20260506041544 62 178 0.0 0.0 0.00 0.00 0.00 71 1009.2
20260506040043 63 217 0.0 0.0 0.00 0.00 0.00 70 1009.1
20260506034541 63 204 0.0 0.0 0.00 0.00 0.00 70 1009.2
20260506033040 63 196 0.0 0.0 0.00 0.00 0.00 69 1009.3
20260506031540 63 195 0.0 0.0 0.00 0.00 0.00 69 1009.1
20260506030039 64 199 0.0 0.0 0.00 0.00 0.00 68 1009.1
20260506024547 64 197 0.0 0.0 0.00 0.00 0.00 67 1009.1
20260506023038 65 189 0.0 1.0 0.00 0.00 0.00 67 1009.2
20260506021537 65 208 0.0 1.0 0.00 0.00 0.00 67 1009.1
20260506020040 65 190 0.0 0.0 0.00 0.00 0.00 67 1009.1
20260506014536 65 213 0.0 1.0 0.00 0.00 0.00 66 1008.9
20260506013037 64 212 0.0 1.0 0.00 0.00 0.00 67 1008.7
20260506011600 64 168 0.0 1.0 0.00 0.00 0.00 68 1008.6
20260506010034 64 198 0.0 1.0 0.00 0.00 0.00 68 1008.4
20260506004542 64 182 0.0 2.0 0.00 0.00 0.00 67 1008.3
20260506003033 65 222 0.0 1.0 0.00 0.00 0.00 65 1008.1
20260506001536 66 161 0.0 1.0 0.00 0.00 0.00 64 1007.9
20260506000051 66 186 0.0 1.0 0.00 0.00 0.00 63 1007.9
20260505234542 67 207 0.0 0.0 0.00 0.00 0.00 63 1007.7
20260505233033 68 165 0.0 0.0 0.00 0.00 0.00 62 1007.5
20260505231530 68 146 0.0 1.0 0.00 0.00 0.00 61 1007.2
20260505230050 69 209 0.0 0.0 0.00 0.00 0.00 59 1006.9
20260505224537 69 209 0.0 1.0 0.00 0.00 0.00 58 1006.8
20260505223027 70 226 0.0 1.0 0.00 0.00 0.00 57 1006.7
20260505221527 70 163 0.0 0.0 0.00 0.00 0.00 56 1006.8
20260505220026 71 148 0.0 0.0 0.00 0.00 0.00 54 1006.8
20260505214529 73 130 0.0 1.0 0.00 0.00 0.00 53 1006.6
20260505213026 74 234 0.0 0.0 0.00 0.00 0.00 52 1006.5
20260505211528 75 178 0.0 0.0 0.00 0.00 0.00 51 1006.5
20260505210025 75 209 0.0 0.0 0.00 0.00 0.00 49 1006.3
20260505204519 76 259 0.0 3.0 0.00 0.00 0.00 52 1006.5
20260505203017 76 191 0.0 0.0 0.00 0.00 0.00 51 1006.7
20260505201515 77 184 0.0 0.0 0.00 0.00 0.00 50 1006.7
20260505200013 76 170 0.0 0.0 0.00 0.00 0.00 51 1006.8
20260505194513 77 190 0.0 0.0 0.00 0.00 0.00 50 1007.0
20260505193010 77 202 0.0 0.0 0.00 0.00 0.00 49 1007.3
20260505191509 78 175 0.0 1.0 0.00 0.00 0.00 51 1007.3
20260505190007 78 171 0.0 2.0 0.00 0.00 0.00 48 1007.6
20260505184505 79 271 0.0 0.0 0.00 0.00 0.00 48 1007.7
20260505183002 79 156 0.0 0.0 0.00 0.00 0.00 47 1007.9
20260505181601 80 161 0.0 0.0 0.00 0.00 0.00 46 1007.9
20260505180105 79 227 0.0 0.0 0.00 0.00 0.00 44 1008.0
20260505174557 80 161 0.0 0.0 0.00 0.00 0.00 46 1008.1
20260505173112 80 236 0.0 0.0 0.00 0.00 0.00 48 1008.2
20260505171613 79 168 0.0 2.0 0.00 0.00 0.00 48 1008.3
20260505170050 80 287 0.0 0.0 0.00 0.00 0.00 47 1008.5
20260505164548 79 228 0.0 0.0 0.00 0.00 0.00 47 1008.6
20260505163045 79 256 0.0 0.0 0.00 0.00 0.00 48 1008.9
20260505161540 77 273 0.0 0.0 0.00 0.00 0.00 54 1009.1
20260505153032 75 213 0.0 0.0 0.00 0.00 0.00 49 1009.6
20260505151527 74 170 0.0 0.0 0.00 0.00 0.00 51 1009.6
20260505124553 60 206 0.0 0.0 0.00 0.00 0.00 75 1009.8
20260505123054 59 248 0.0 0.0 0.00 0.00 0.00 76 1009.9
20260505121611 59 175 0.0 0.0 0.00 0.00 0.00 77 1009.6
20260505120038 57 225 0.0 1.0 0.00 0.00 0.00 77 1009.4
20260505114537 56 213 0.0 0.0 0.00 0.00 0.00 80 1009.9
20260505113036 55 208 0.0 0.0 0.00 0.00 0.00 82 1010.2
20260505111539 54 204 0.0 0.0 0.00 0.00 0.00 85 1010.0
20260505101524 53 202 0.0 0.0 0.00 0.00 0.00 85 1009.4
20260505100034 53 198 0.0 0.0 0.00 0.00 0.00 86 1009.2
20260505094522 53 187 0.0 0.0 0.00 0.00 0.00 85 1009.1
20260505093027 53 197 0.0 0.0 0.00 0.00 0.00 85 1008.9
20260505091527 53 200 0.0 0.0 0.00 0.00 0.00 84 1009.1
20260505090020 53 221 0.0 0.0 0.00 0.00 0.00 83 1008.9
20260505084522 54 231 0.0 0.0 0.00 0.00 0.00 82 1008.8
20260505083025 53 213 0.0 0.0 0.00 0.00 0.00 82 1008.9
20260505081517 54 205 0.0 0.0 0.00 0.00 0.00 81 1009.1
20260505080011 54 198 0.0 1.0 0.00 0.00 0.00 79 1009.1
20260505074511 55 205 0.0 1.0 0.00 0.00 0.00 78 1009.0
20260505073007 55 174 0.0 0.0 0.00 0.00 0.00 76 1008.9
20260505071504 56 201 0.0 0.0 0.00 0.00 0.00 74 1008.9
20260505070003 56 213 0.0 3.0 0.00 0.00 0.00 73 1008.9
20260505064501 56 204 0.0 1.0 0.00 0.00 0.00 72 1009.1
20260505063059 56 204 0.0 0.0 0.00 0.00 0.00 71 1009.1
20260505061556 56 198 0.0 0.0 0.00 0.00 0.00 70 1009.2
20260505060054 57 185 0.0 1.0 0.00 0.00 0.00 68 1009.2
20260505054617 58 196 0.0 1.0 0.00 0.00 0.00 67 1009.3
20260505053052 58 217 0.0 1.0 0.00 0.00 0.00 65 1009.3
20260505051549 58 205 0.0 1.0 0.00 0.00 0.00 64 1009.5